[[{"header":{"parameterUnit":"m.s-1","parameterCategory":1,"la1":30.2991,"la2":30.254,"lo1":-89.0895,"lo2":-89.0444,"dy":0.0017,"dx":0.0017,"nx":28,"ny":28,"refTime":"2024-05-22T09:00:00:Z","depth":0,"parameterNumber":2,"parameterNumberName":"U-component_of_WINDS"},"data":[0,0,0,0,0,0,0,0,0,0,0,0,0,0,0,0,0,0,0,0,0,0,0,0,0,0,0,0,0,0,0,0,0,0,0,0,0,0,0,0,0,0,0,0,0,0,0,0,0,0,0,0,0,0,0,0,0,0,-3.8034,-3.8034,0,-3.7999,-3.7998,-3.7998,-3.7933,-3.7932,-3.7931,-3.7929,-3.7894,-3.7894,-3.7894,0,0,0,0,0,0,0,0,0,0,0,0,0,-3.8046,-3.8046,-3.8034,-3.8033,-3.8033,-3.7999,-3.7998,-3.7998,-3.7933,-3.7932,-3.793,-3.7929,-3.7893,-3.7894,-3.7894,0,0,0,0,0,0,0,0,0,0,0,0,0,-3.8029,-3.8046,-3.8034,-3.7997,-3.7993,-3.7999,-3.7998,-3.7998,-3.7934,-3.7932,-3.793,-3.7928,-3.7893,-3.7894,-3.7894,-3.7934,0,0,-3.7895,-3.7895,0,0,0,0,0,0,0,0,-3.803,-3.8029,-3.8003,-3.7999,-3.7995,-3.7968,-3.7989,-3.7976,-3.7934,-3.7956,-3.7929,-3.7927,-3.792,-3.7918,-3.7916,-3.7932,-3.793,-3.7895,-3.7895,-3.7895,-3.7895,0,0,0,0,0,0,0,-3.8031,-3.803,-3.802,-3.8002,-3.7998,-3.7982,-3.7978,-3.7987,-3.7949,-3.7954,-3.7949,-3.7946,-3.7918,-3.7915,-3.7914,-3.793,-3.7895,-3.7895,-3.7895,-3.7896,-3.7978,-3.798,0,0,0,0,0,0,-3.8038,-3.8031,-3.8021,-3.8019,-3.8008,-3.7983,-3.7978,-3.7979,-3.7949,-3.7942,-3.7948,-3.7943,-3.7916,-3.7914,-3.7913,-3.7957,-3.7895,-3.7896,-3.7896,-3.7976,-3.7978,-3.798,0,0,0,0,0,0,-3.8038,-3.8038,-3.8023,-3.8024,-3.8021,-3.7985,-3.7986,-3.7979,-3.7977,-3.7944,-3.7937,-3.7952,-3.7914,-3.7912,-3.7929,-3.7955,-3.7896,-3.7896,-3.7974,-3.7977,-3.7979,-3.8046,0,0,0,0,0,0,-3.8039,-3.8038,-3.8052,-3.8025,-3.8021,-3.8039,-3.7988,-3.798,-3.7978,-3.7971,-3.7946,-3.794,-3.7913,-3.7929,-3.7929,-3.7954,-3.7896,-3.7971,-3.7975,-3.7978,-3.8041,-3.805,-3.8059,0,0,0,0,0,-3.804,-3.8072,-3.8053,-3.8052,-3.8038,-3.8041,-3.8039,-3.8006,-3.798,-3.7994,-3.7973,-3.7941,-3.7953,-3.7931,-3.7931,-3.7956,-3.7969,-3.7974,-3.7978,-3.8037,-3.8049,-3.8058,0,0,0,0,0,0,-3.8103,-3.8068,-3.8046,-3.8071,-3.806,-3.803,-3.8046,-3.8019,-3.8015,-3.8009,-3.7969,-3.7964,-3.7986,-3.7973,-3.795,-3.7994,-3.7956,-3.7961,-3.8001,-3.8011,-3.802,-3.8022,-3.7897,0,0,0,0,0,-3.812,-3.8125,-3.8094,-3.8119,-3.8114,-3.8082,-3.8082,-3.8058,-3.8044,-3.8039,-3.8019,-3.8007,-3.8008,-3.8009,-3.8008,-3.804,-3.8033,-3.8057,-3.8066,-3.8074,-3.8077,-3.8093,-3.8103,-3.7995,-3.7995,-3.7995,0,0,-3.8155,-3.8137,-3.8142,-3.8131,-3.812,-3.8126,-3.8078,-3.8087,-3.8091,-3.804,-3.8054,-3.804,-3.8025,-3.8049,-3.8059,-3.8039,-3.8106,-3.8079,-3.8086,-3.8085,-3.8099,-3.8109,-3.8118,-3.7998,-3.7998,-3.7997,0,0,-3.8221,-3.8208,-3.8227,-3.8217,-3.82,-3.8178,-3.8183,-3.8158,-3.8147,-3.8161,-3.8123,-3.8129,-3.8131,-3.8121,-3.8116,-3.8182,-3.8152,-3.8183,-3.8229,-3.8245,-3.8253,-3.826,-3.8283,-3.8292,-3.8188,-3.8188,-3.8188,0,-3.8267,-3.8274,-3.824,-3.8252,-3.8248,-3.8204,-3.8223,-3.8215,-3.8199,-3.8198,-3.8176,-3.8179,-3.8165,-3.8186,-3.8203,-3.8201,-3.8205,-3.8185,-3.8255,-3.8262,-3.8268,-3.8289,-3.8298,-3.8192,-3.8191,-3.8191,-3.8191,0,-3.8331,-3.8337,-3.8355,-3.834,-3.8339,-3.8355,-3.8323,-3.8327,-3.8304,-3.8285,-3.83,-3.8283,-3.8278,-3.8282,-3.8259,-3.8301,-3.8289,-3.8262,-3.8223,-3.8283,-3.8302,-3.831,-3.8197,-3.8196,-3.8195,-3.8194,0,0,-3.8433,-3.8401,-3.8408,-3.8401,-3.8381,-3.8385,-3.84,-3.8395,-3.8398,-3.8389,-3.84,-3.8404,-3.8379,-3.8375,-3.8351,-3.8365,-3.8418,-3.8337,-3.8336,-3.8351,-3.8462,-3.8481,-3.8491,-3.84,-3.8401,-3.8402,-3.8463,0,-3.8494,-3.8515,-3.8486,-3.8513,-3.8519,-3.8478,-3.8491,-3.848,-3.8463,-3.8466,-3.8448,-3.8451,-3.8419,-3.8416,-3.8428,-3.8409,-3.8439,-3.8405,-3.8408,-3.8409,-3.8411,-3.8501,-3.8521,-3.8579,-3.847,-3.8472,-3.8472,0,-3.8566,-3.8561,-3.859,-3.8568,-3.8569,-3.8581,-3.8574,-3.8578,-3.8565,-3.8552,-3.8548,-3.8521,-3.8534,-3.8498,-3.8515,-3.8492,-3.8493,-3.8484,-3.8485,-3.8483,-3.8443,-3.8499,-3.8597,-3.8605,-3.8484,-3.8483,-3.8482,0,-3.8637,-3.8637,-3.8654,-3.865,-3.8626,-3.8635,-3.8625,-3.8611,-3.861,-3.8606,-3.8605,-3.8602,-3.86,-3.8599,-3.8572,-3.8548,-3.8592,-3.8554,-3.8581,-3.8582,-3.859,-3.859,-3.8687,-3.8594,-3.8594,-3.8594,-3.8594,0,-3.8706,-3.8724,-3.8686,-3.8696,-3.8716,-3.8684,-3.8705,-3.8691,-3.8679,-3.8687,-3.8652,-3.866,-3.8625,-3.8629,-3.8608,-3.8626,-3.8625,-3.8615,-3.8609,-3.8617,-3.8618,-3.8615,-3.861,-3.8596,-3.8596,-3.8595,-3.8595,0,-3.8787,-3.8761,-3.8777,-3.8754,-3.8748,-3.8764,-3.8744,-3.8753,-3.8736,-3.8745,-3.8746,-3.8718,-3.8722,-3.8695,-3.8694,-3.868,-3.8707,-3.8694,-3.8711,-3.8706,-3.8734,-3.8732,-3.8832,-3.8843,-3.8744,-3.8745,-3.8746,0,-3.8831,-3.8845,-3.8823,-3.8826,-3.8818,-3.8822,-3.8822,-3.8792,-3.8792,-3.878,-3.8791,-3.8792,-3.879,-3.8798,-3.8778,-3.8777,-3.8763,-3.8799,-3.8763,-3.8771,-3.8762,-3.8761,-3.8762,-3.8805,-3.8807,-3.8808,-3.8809,0,-3.8913,-3.8901,-3.8901,-3.8898,-3.8898,-3.8894,-3.8888,-3.8892,-3.8859,-3.8862,-3.8866,-3.8865,-3.8864,-3.8865,-3.8861,-3.8851,-3.8824,-3.8821,-3.8827,-3.8834,-3.8842,-3.8837,-3.8729,-3.8818,-3.8817,-3.8816,-3.8816,-3.8815,-3.8976,-3.8986,-3.8973,-3.8975,-3.8967,-3.8963,-3.897,-3.8954,-3.8956,-3.8953,-3.8935,-3.8942,-3.8931,-3.8922,-3.8915,-3.892,-3.8903,-3.8912,-3.8914,-3.8916,-3.8921,-3.8843,-3.8919,-3.8919,-3.8919,-3.8919,-3.8918,0,-3.9055,-3.9045,-3.9047,-3.904,-3.9042,-3.9018,-3.901,-3.9014,-3.902,-3.9011,-3.9011,-3.9016,-3.9017,-3.8998,-3.8998,-3.9005,-3.8993,-3.9006,-3.9004,-3.9002,-3.8937,-3.8931,-3.9016,-3.9016,-3.9016,-3.9016,-3.9016,-3.9016,-3.9096,-3.9112,-3.9099,-3.9111,-3.9101,-3.9107,-3.9105,-3.91,-3.9094,-3.91,-3.9101,-3.9089,-3.9077,-3.9075,-3.9076,-3.907,-3.9071,-3.9088,-3.9078,-3.9016,-3.9007,-3.8998,-3.8992,-3.9089,-3.9089,-3.9143,-3.9144,-3.9144]},{"header":{"parameterUnit":"m.s-1","parameterCategory":1,"la1":30.2991,"la2":30.254,"lo1":-89.0895,"lo2":-89.0444,"dy":0.0017,"dx":0.0017,"nx":28,"ny":28,"refTime":"2024-05-22T09:00:00:Z","depth":0,"parameterNumber":3,"parameterNumberName":"V-component_of_WINDS"},"data":[0,0,0,0,0,0,0,0,0,0,0,0,0,0,0,0,0,0,0,0,0,0,0,0,0,0,0,0,0,0,0,0,0,0,0,0,0,0,0,0,0,0,0,0,0,0,0,0,0,0,0,0,0,0,0,0,0,0,4.142,4.142,0,4.145,4.145,4.1451,4.148,4.148,4.148,4.1481,4.1509,4.1509,4.1509,0,0,0,0,0,0,0,0,0,0,0,0,0,4.1386,4.1387,4.142,4.142,4.1421,4.145,4.145,4.1451,4.148,4.148,4.1481,4.1481,4.1508,4.1509,4.1509,0,0,0,0,0,0,0,0,0,0,0,0,0,4.1407,4.1387,4.142,4.1439,4.1441,4.145,4.145,4.1451,4.1479,4.148,4.1481,4.1481,4.1508,4.1509,4.1509,4.1501,0,0,4.1511,4.1511,0,0,0,0,0,0,0,0,4.1406,4.1408,4.1436,4.1437,4.144,4.1462,4.1448,4.1468,4.1479,4.1465,4.1481,4.1481,4.1492,4.1494,4.1498,4.1503,4.1504,4.1511,4.1512,4.1512,4.1512,0,0,0,0,0,0,0,4.1404,4.1407,4.1432,4.1436,4.1438,4.1445,4.1449,4.1452,4.1475,4.1466,4.1468,4.1471,4.1494,4.1498,4.1499,4.1504,4.1511,4.1512,4.1512,4.1512,4.1504,4.1503,0,0,0,0,0,0,4.14,4.1405,4.1431,4.1433,4.1424,4.1445,4.1449,4.1454,4.1475,4.1479,4.1471,4.1473,4.1497,4.1499,4.15,4.1493,4.1512,4.1512,4.1513,4.1504,4.1504,4.1503,0,0,0,0,0,0,4.1399,4.1402,4.143,4.142,4.1424,4.1445,4.145,4.1454,4.1459,4.1479,4.1483,4.1471,4.1497,4.15,4.1501,4.1494,4.1513,4.1513,4.1505,4.1504,4.1503,4.1477,0,0,0,0,0,0,4.1398,4.1402,4.1399,4.1419,4.1424,4.143,4.145,4.1454,4.146,4.1463,4.148,4.1483,4.1498,4.15,4.1502,4.1495,4.1514,4.1506,4.1505,4.1504,4.1479,4.1475,4.1473,0,0,0,0,0,4.1397,4.139,4.1399,4.1402,4.1422,4.143,4.1433,4.145,4.1459,4.1457,4.147,4.1483,4.1495,4.15,4.1502,4.1496,4.1506,4.1505,4.1504,4.148,4.1476,4.1473,0,0,0,0,0,0,4.1367,4.1393,4.1403,4.1403,4.1414,4.1435,4.1432,4.1445,4.1453,4.1455,4.1476,4.1479,4.1479,4.1487,4.1493,4.1489,4.1502,4.1501,4.1484,4.148,4.1477,4.1475,4.1514,0,0,0,0,0,4.136,4.1366,4.1388,4.1385,4.139,4.141,4.1414,4.1427,4.1439,4.1444,4.1457,4.1468,4.1474,4.1477,4.1484,4.148,4.1484,4.1477,4.1474,4.1471,4.147,4.1469,4.1466,4.1499,4.1499,4.1499,0,0,4.1346,4.1361,4.1363,4.1379,4.139,4.1394,4.1414,4.1418,4.1421,4.1444,4.1447,4.1457,4.147,4.1469,4.1469,4.1476,4.1462,4.1469,4.1467,4.1468,4.1467,4.1464,4.1461,4.1498,4.1498,4.1498,0,0,4.1324,4.1336,4.1335,4.1345,4.1361,4.1375,4.1375,4.1394,4.1402,4.1405,4.1423,4.1427,4.1437,4.1446,4.1452,4.1433,4.1446,4.1435,4.1419,4.1418,4.1415,4.1413,4.1407,4.1404,4.1434,4.1434,4.1434,0,4.1304,4.1313,4.1333,4.1336,4.1343,4.1365,4.1365,4.1373,4.139,4.1394,4.1402,4.1415,4.1426,4.1427,4.1423,4.1427,4.1427,4.1433,4.1414,4.1412,4.141,4.1404,4.1402,4.1432,4.1432,4.1433,4.1433,0,4.1288,4.1294,4.1292,4.1309,4.1315,4.1316,4.1336,4.134,4.1352,4.1364,4.1367,4.1381,4.1391,4.1392,4.1404,4.1396,4.14,4.141,4.1424,4.1405,4.14,4.1398,4.143,4.1431,4.1431,4.1431,0,0,4.1247,4.1276,4.1275,4.1283,4.1303,4.1307,4.1309,4.1321,4.1324,4.1334,4.1337,4.1345,4.1356,4.1362,4.1375,4.1374,4.1359,4.1385,4.1386,4.138,4.1351,4.1343,4.134,4.1367,4.1367,4.1367,4.135,0,4.1228,4.1234,4.1253,4.1253,4.1259,4.128,4.1282,4.1294,4.1306,4.1312,4.1324,4.133,4.1344,4.1348,4.1348,4.1361,4.1353,4.1362,4.1369,4.1369,4.1365,4.1337,4.1328,4.1312,4.1348,4.1348,4.1347,0,4.1206,4.1217,4.1219,4.1239,4.1242,4.1243,4.1256,4.1261,4.1275,4.1283,4.1291,4.1306,4.1309,4.1322,4.1326,4.1331,4.1335,4.1342,4.1342,4.1343,4.1357,4.1338,4.1307,4.1305,4.1344,4.1345,4.1345,0,4.1177,4.1192,4.1195,4.1201,4.1224,4.1225,4.1235,4.1249,4.1255,4.1265,4.1269,4.1279,4.1284,4.1291,4.1308,4.1316,4.131,4.1324,4.1317,4.1317,4.1315,4.1315,4.1284,4.1317,4.1317,4.1317,4.1317,0,4.1153,4.1153,4.1182,4.1184,4.1184,4.1205,4.1205,4.1216,4.1229,4.1233,4.1252,4.1255,4.1277,4.1282,4.1295,4.1297,4.1299,4.1306,4.1309,4.1304,4.1304,4.1307,4.1309,4.1317,4.1317,4.1317,4.1317,0,4.112,4.1139,4.1144,4.1166,4.1172,4.1171,4.119,4.1192,4.1206,4.1211,4.1213,4.1233,4.1241,4.1258,4.127,4.1278,4.1277,4.1283,4.1273,4.1275,4.1267,4.1267,4.1238,4.1235,4.1269,4.1269,4.1268,0,4.1104,4.1105,4.1128,4.1133,4.1142,4.1149,4.1155,4.1176,4.1182,4.1198,4.1198,4.1207,4.1216,4.1227,4.1242,4.1251,4.1258,4.1247,4.1259,4.1254,4.1258,4.1258,4.1258,4.1244,4.1243,4.1243,4.1243,0,4.1074,4.1084,4.1093,4.1105,4.1113,4.1123,4.1134,4.1137,4.116,4.1165,4.1174,4.1181,4.1193,4.1202,4.1214,4.1223,4.1236,4.1239,4.1238,4.1233,4.1227,4.123,4.1265,4.1239,4.124,4.124,4.124,4.124,4.1049,4.1051,4.1068,4.1078,4.1089,4.1099,4.1103,4.1117,4.1125,4.1138,4.1149,4.1156,4.117,4.1188,4.1196,4.1202,4.1208,4.1207,4.1206,4.1206,4.1204,4.1226,4.1204,4.1204,4.1204,4.1204,4.1204,0,4.1021,4.1033,4.1041,4.1057,4.1065,4.1078,4.1092,4.1097,4.1104,4.1116,4.1124,4.1134,4.1143,4.1159,4.117,4.1171,4.1177,4.1173,4.1173,4.1175,4.1197,4.1197,4.1168,4.1168,4.1168,4.1168,4.1168,4.1168,4.1006,4.1011,4.1023,4.1032,4.1044,4.1053,4.1059,4.1069,4.1079,4.109,4.1098,4.1109,4.1123,4.1134,4.1143,4.1147,4.115,4.1143,4.115,4.117,4.1173,4.1177,4.1177,4.1144,4.1144,4.1128,4.1128,4.1128]}]]